Tracking 25612 objects as of 21-May-2022
HD Live streaming from Space Station
objects crossing your sky now

ONEWEB-0421

Track ONEWEB-0421 now!
10-day predictions
ONEWEB-0421 is classified as:


NORAD ID: 50496
Int'l Code: 2021-132AD
Perigee: 595.6 km
Apogee: 599.0 km
Inclination: 87.2 °
Period: 96.5 minutes
Semi major axis: 6968 km
RCS: Unknown
Launch date: December 27, 2021
Source: United Kingdom (UK)
Launch site: TYURATAM MISSILE AND SPACE COMPLEX (TTMTR)
aabbcc
Your satellite tracking list
Your tracking list is empty




NASA's NSSDC Master Catalog

Two Line Element Set (TLE):
1 50496U 21132AD  22140.58334491 -.00053548  00000-0 -52703-2 0  9995
2 50496  87.2125 305.1152 0002437 143.1446 273.6462 14.92490265  1303
Source of the keplerian elements: AFSPC